Location: Moscow Pond
(43.6842°N, 73.2366°W)
Time: 02:48:23
(UTC+00:00)

ARGOS - Pass Details

Date: 08 November 2025
Orbit: 819 x 832 km, 98.5° (Epoch: 04 December)

Event Time Altitude Azimuth Distance (km) Brightness Sun altitude
Rises 09:13:13 0° 10° (N) 3,387 6.5 -26.4°
Reaches altitude 10° 09:15:35 10° 8° (N) 2,449 5.7 -26.0°
Enters shadow 09:20:38 63° 308° (NW) 929 3.1 -25.1°
